Probability
0 0 0 0 0 0 0 0 0 0 0 0 0 0 0 0 0 0 0 0 0 0 0 0 0 0 0 0 0 0 0 0 0 0 0 0 0 0 0 0 0 0 0 0
0 0 0 0 0 0 0 0 0 0 0 0 0 0 0 0 0 0 0 0 0 0 0 0 0 0 0 0 0 0 0 0 0 0 0 0 0 0 0 0 0 0 0 0
0 0 0 0 0 0 0 0 0 0 0 0 0 0 0 0 0 0 0 0 0 0 0 0 0 0 0 0 0 0 0 0 0 0 0 0 0 0 0 0 0 0 0 0
0 0 0 0 0 0 0 0 0 0 0 0 0 0 0 0 0 0 0 0 0 0 0 0 0 0 0 0 0 0 0 0 0 0 0 0 0 0 0 0 0 0 0 0
0 0 0 0 0 0 0 0 0 0 0 0 0 0 0 0 0 0 0 0 0 0 0 0 0 0 0 0 0 0 0 0 0 0 0 0 0 0 0 0 0 0 0 0
0 0 0 0 0 0 0 0 0 0 0 0 0 0 0 0 0 0 0 0 0 0 0 0 0 0 0 0 0 0 0 0 0 0 0 0 0 0 0 0 0 0 0 0
0 0 0 0 0 0 0 0 0 0 0 0 0 0 0 0 0 0 0 0 0 0 0 0 0 0 0 0 0 0 0 0 0 0 0 0 0 0 0 0 0 0 0 0
0 0 0 0 0 0 0 0 0 0 0 0 0 0 0 0 0 0 0 0 0 0 0 0 0 0 0 0 0 0 0 0 0 0 0 0 0 0 0 0 0 0 0 0
0 0 0 0 0 0 0 0 0 0 0 0 0 0 0 0 0 0 0 0 0 0 0 0 0 0 0 0 0 0 0 0 0 0 0 0 0 0 0 0 0 0 0 0
0 0 0 0 0 0 0 0 0 0 0 0 0 0 0 0 0 0 0 0 0 0 0 0 0 0 0 0 0 0 0 0 0 0 0 0 0 0 0 0 0 0 0 0
0 0 0 0 0 0 0 0 0 0 0 0 0 0 0 0 0 0 0 0 0 0 0 0 0 0 0 0 0 0 0 0 0 0 0 0 0 0 0 0 0 0 0 0
0 0 0 0 0 0 0 0 0 0 0 0 0 0 0 0 0 0 0 0 0 0 0 0 0 0 0 0 0 0 0 0 0 0 0 0 0 0 0 0 0 0 0 0
0 0 0 0 0 0 0 0 0 0 0 0 0 0 0 0 0 0 0 0 0 0 0 0 0 0 0 0 0 0 0 0 0 0 0 0 0 0 0 0 0 0 0 0
0 0 0 0 0 0 0 0 0 0 0 0 0 0 0 0 0 0 0 0 0 0 0 0 0 0 0 0 0 0 0 0 0 0 0 0 0 0 0 0 0 0 0 0
0 0 0 0 0 0 0 0 0 0 0 0 0 0 0 0 0 0 0 0 0 0 0 0 0 0 0 0 0 0 0 0 0 0 0 0 0 0 0 0 0 0 0 0
0 0 0 0 0 0 0 0 0 0 0 0 0 0 0 0 0 0 0 0 0 0 0 0 0 0 0 0 0 0 0 0 0 0 0 0 0 0 0 0 0 0 0 0
0 0 0 0 0 0 0 0 0 0 0 0 0 0 0 0 0 0 0 0 0 0 0 0 0 0 0 0 0 0 0 0 0 0 0 0 0 0 0 0 0 0 0 0
0 0 0 0 0 0 0 0 0 0 0 0 0 0 0 0 0 0 0 0 0 0 0 0 0 0 0 0 0 0 0 0 0 0 0 0 0 0 0 0 0 0 0 0
0 0 0 0 0 0 0 0 0 0 0 0 0 0 0 0 0 0 0 0 0 0 0 0 0 0 0 0 0 0 0 0 0 0 0 0 0 0 0 0 0 0 0 0
0 0 0 0 0 0 0 0 0 0 0 0 0 0 0 0 0 0 0 0 0 0 0 0 0 0 0 0 0 0 0 0 0 0 0 0 0 0 0 0 0 0 0 0
0 0 0 0 0 0 0 0 0 0 0 0 0 0 0 0 0 0 0 0 0 0 0 0 0 0 0 0 0 0 0 0 0 0 0 0 0 0 0 0 0 0 0 0
0 0 0 0 0 0 0 0 0 0 0 0 0 0 0 0 0 0 0 0 0 0 0 0 0 0 0 0 0 0 0 0 0 0 0 0 0 0 0 0 0 0 0 0
0 0 0 0 0 0 0 0 0 0 0 0 0 0 0 0 0 0 0 0 0 0 0 0 0 0 0 0 0 0 0 0 0 0 0 0 0 0 0 0 0 0 0 0
0 0 0 0 0 0 0 0 0 0 0 0 0 0 0 0 0 0 0 0 0 0 0 0 0 0 0 0 0 0 0 0 0 0 0 0 0 0 0 0 0 0 0 0
0 0 0 0 0 0 0 0 0 0 0 0 0 0 0 0 0 0 0 0 0 0 0 0 0 0 0 0 0 0 0 0 0 0 0 0 0 0 0 0 0 0 0 0
0 0 0 0 0 0 0 0 0 0 0 0 0 0 0 0 0 0 0 0 0 0 0 0 0 0 0 0 0 0 0 0 0 0 0 0 0 0 0 0 0 0 0 0
0 0 0 0 0 0 0 0 0 0 0 0 0 0 0 0 0 0 0 0 0 0 0 0 0 0 0 0 0 0 0 0 0 0 0 0 0 0 0 0 0 0 0 0
Wind_Speed
3 4 5 4 5 5 4 1 3 6 5 4 5 7 8 8 9 10 10 10 10 10 9 10 10 10 10 11 10 10 9 9 10 10 9 9 9 9 9 8 10 9 8 8
3 4 6 5 5 3 2 2 3 4 5 4 6 6 7 9 11 11 11 11 11 11 11 11 11 11 11 11 11 10 10 11 11 9 9 9 9 9 8 8 8 8 8 9
2 3 2 2 2 2 3 3 3 4 5 7 9 9 9 10 10 10 11 11 12 12 12 12 12 11 11 12 11 11 11 11 11 10 9 9 9 8 8 8 7 7 8 9
2 1 2 4 2 2 4 4 2 4 6 8 9 9 9 9 8 10 11 11 12 12 12 12 12 12 11 12 12 12 11 12 11 10 10 9 8 8 8 7 7 7 8 9
3 0 3 2 2 2 3 6 3 4 7 8 8 7 7 6 6 9 11 12 12 12 13 13 13 13 12 12 12 12 12 11 11 10 9 9 8 8 7 6 7 7 7 8
3 1 3 4 3 3 1 5 2 3 7 7 7 7 7 7 9 11 12 11 12 12 13 13 13 13 13 14 13 13 12 12 11 9 9 9 8 8 7 6 7 7 7 7
2 1 6 4 3 3 1 7 5 4 6 6 5 7 10 11 11 10 11 13 12 12 13 13 13 13 13 13 13 13 12 11 10 9 9 9 8 7 7 6 6 6 7 7
2 1 6 2 1 1 6 5 4 4 5 6 8 9 10 10 11 12 12 13 13 12 13 13 12 12 14 13 13 12 11 10 10 9 8 8 6 6 6 5 5 5 5 5
6 6 6 2 2 2 2 3 4 4 6 6 7 8 9 9 10 11 12 12 12 13 14 13 12 12 13 13 12 11 10 10 9 9 7 6 6 6 5 4 4 3 3 4
3 6 3 2 2 2 1 2 4 4 5 5 6 9 10 10 10 11 11 12 12 13 14 14 13 12 11 12 11 11 11 10 8 7 6 5 4 4 3 3 3 3 3 3
4 5 3 3 2 2 2 2 3 4 4 5 7 9 9 10 11 11 11 11 11 13 14 15 14 13 12 11 11 11 10 9 8 6 5 5 4 3 3 3 3 3 3 3
6 6 5 5 3 1 1 3 4 4 6 6 6 8 9 10 10 11 12 12 13 14 14 14 14 13 12 11 11 10 8 7 5 5 4 3 3 2 2 3 3 5 5 4
5 3 5 3 1 1 2 3 3 4 5 7 7 7 8 9 9 11 12 13 14 15 14 14 14 13 13 12 11 10 9 7 5 4 3 3 2 2 2 2 1 1 1 2
3 4 2 2 2 2 2 3 4 5 5 6 6 8 9 9 11 12 13 14 14 14 14 13 13 13 13 12 11 10 9 7 6 4 3 3 2 2 1 1 1 2 3 4
3 4 4 2 1 1 2 3 4 5 6 6 6 8 9 10 12 13 13 13 13 13 13 13 14 14 13 12 11 10 8 5 4 3 3 2 2 1 1 1 1 1 2 4
5 3 3 2 2 2 3 3 4 6 6 6 7 9 10 10 11 12 12 12 14 14 14 14 14 14 13 12 10 7 6 10 7 3 2 2 2 2 2 2 2 2 2 2
7 4 4 3 4 3 3 4 4 5 5 6 8 9 10 11 11 12 13 13 12 12 11 12 14 14 12 11 9 6 5 6 9 5 3 3 3 2 2 2 2 2 2 1
6 7 6 5 4 4 4 4 4 5 5 6 7 8 9 10 11 13 14 14 13 12 12 14 15 15 12 11 8 5 5 4 4 4 4 4 3 3 2 2 2 2 2 2
5 6 6 5 4 3 3 3 4 4 5 5 6 8 8 9 10 11 12 12 13 14 15 16 19 14 12 12 11 5 5 5 4 4 4 4 4 3 3 3 3 3 2 2
6 5 5 4 3 2 3 3 3 3 4 4 6 7 9 10 10 11 11 9 8 10 14 15 14 12 12 11 12 5 5 5 5 4 4 4 4 4 3 3 3 3 3 2
7 6 5 4 3 3 3 2 2 3 4 4 5 7 8 9 9 9 9 9 11 13 14 14 11 11 10 10 9 6 6 6 5 4 4 4 4 4 4 4 3 3 2 2
7 6 6 5 4 3 3 2 2 3 4 4 5 6 7 9 9 9 7 6 10 15 11 9 10 13 14 11 7 7 7 6 5 5 4 4 4 4 4 4 4 3 3 2
7 6 6 5 5 4 2 2 2 2 3 4 5 6 6 7 6 7 8 8 9 14 10 9 15 18 15 8 7 7 8 7 6 5 5 5 4 4 4 5 4 4 3 3
7 6 6 5 4 3 3 3 2 2 3 3 3 4 5 5 5 4 5 9 12 12 9 11 16 17 12 8 7 7 7 7 6 5 5 5 5 5 5 5 5 4 4 5
7 6 5 5 5 5 5 3 2 2 2 2 4 4 4 3 4 6 7 8 11 11 8 11 15 15 10 8 8 8 7 7 6 6 5 5 5 5 5 5 5 5 5 5
7 7 6 7 5 4 4 3 2 2 1 2 3 3 4 4 5 5 5 7 10 10 8 8 10 10 9 9 9 9 8 8 7 6 7 6 6 6 5 5 7 5 5 5
6 5 4 4 4 4 4 4 3 3 2 2 2 3 4 4 4 5 6 6 7 7 7 7 8 8 8 8 8 8 8 7 7 7 7 6 6 6 6 7 6 6 5 6
Wind_Direction
64 67 88 74 45 42 65 113 236 266 265 277 299 298 296 296 299 304 302 303 301 298 298 297 296 294 292 290 288 284 280 274 267 265 261 256 252 249 246 241 239 234 232 232
65 79 87 67 30 25 7 305 273 283 279 278 302 304 297 295 298 301 301 302 302 302 302 300 298 297 296 293 291 288 283 278 274 269 267 262 257 253 249 246 243 237 232 232
190 227 355 348 321 320 287 261 249 263 274 303 305 300 293 294 300 302 304 303 303 303 300 299 297 295 293 291 291 289 284 282 280 276 273 267 264 259 249 246 243 238 237 234
107 86 270 246 255 272 265 254 229 257 276 286 281 285 285 287 295 299 301 302 303 302 302 299 297 297 295 297 296 291 287 282 278 273 270 268 264 259 253 245 242 241 239 234
91 83 298 272 300 314 282 274 225 270 289 297 304 312 293 289 298 294 299 301 301 301 303 303 302 302 302 301 298 294 291 288 284 277 272 270 266 262 258 251 248 242 238 232
87 60 269 255 285 311 280 294 256 292 298 306 326 324 295 306 308 302 302 303 304 307 308 307 305 305 304 303 301 297 294 291 286 278 274 272 268 266 262 251 248 246 243 236
91 281 273 261 300 36 58 275 296 295 295 302 289 263 284 304 304 300 302 306 308 310 311 309 309 310 308 305 302 299 297 294 289 281 275 272 268 265 261 255 250 245 248 246
123 4 282 260 97 173 234 265 295 294 292 288 281 283 293 300 302 309 312 313 314 314 312 311 312 313 311 308 306 305 302 296 291 285 280 281 270 268 262 254 250 245 247 255
184 216 243 238 216 247 217 267 287 287 290 291 291 293 300 300 305 309 311 313 315 315 315 316 316 316 315 314 313 311 308 303 297 292 285 279 273 270 266 252 241 241 236 247
253 268 254 242 262 296 291 273 286 285 289 293 293 297 304 306 310 313 314 316 317 319 319 320 320 320 317 316 317 314 311 309 305 299 293 288 276 262 256 244 234 234 234 241
260 277 298 268 252 273 295 298 299 302 293 294 297 302 305 309 312 315 317 317 319 321 320 319 320 321 322 321 319 315 311 310 308 302 296 293 281 260 250 242 232 227 231 229
225 227 201 247 253 227 253 285 292 299 303 304 301 302 307 310 311 315 318 320 322 323 321 321 324 323 323 324 322 319 315 315 313 310 307 302 300 305 277 256 262 245 238 229
207 192 185 222 204 197 251 275 289 296 295 302 307 305 309 310 313 318 320 325 326 324 322 322 324 326 328 327 325 322 320 318 314 314 316 319 317 323 333 343 14 22 296 247
177 136 161 195 218 258 271 285 300 305 301 300 303 310 316 316 319 324 326 326 324 323 324 326 328 330 330 329 327 326 324 325 328 319 320 321 326 326 330 343 15 32 37 40
172 163 180 187 198 274 293 300 310 311 309 311 311 317 323 324 324 324 324 324 326 328 330 331 332 332 331 330 331 331 330 329 328 325 330 333 340 354 14 27 45 57 49 47
153 136 143 161 225 269 288 295 297 301 306 309 316 321 321 320 319 322 326 330 332 331 331 332 332 330 330 331 333 334 333 343 353 349 352 1 16 32 39 47 59 63 65 71
147 178 196 217 239 256 265 272 277 288 300 310 315 318 322 327 331 334 334 333 329 324 327 334 334 331 331 334 335 334 336 343 360 6 14 25 36 44 48 56 62 62 59 75
177 182 184 194 209 238 269 287 294 299 300 303 315 323 330 333 333 332 331 331 333 337 343 342 338 336 336 339 340 340 345 352 3 10 18 32 37 37 40 49 60 63 56 66
168 173 183 194 202 213 245 272 286 294 302 313 323 325 322 323 325 328 330 335 343 345 342 339 335 339 341 344 349 349 356 5 13 18 26 37 38 35 38 44 52 63 67 67
172 174 181 192 197 206 242 267 283 297 308 318 321 325 330 330 332 333 334 334 341 339 332 334 338 342 343 344 351 354 2 10 19 23 29 37 40 38 40 46 52 61 64 66
180 181 186 194 207 224 237 253 266 292 308 319 322 323 323 323 328 334 338 341 341 342 339 339 346 346 344 345 350 0 8 17 23 27 34 39 41 41 43 47 52 60 62 55
184 184 192 195 202 225 244 244 251 282 307 319 324 327 329 331 334 335 332 331 332 337 341 347 350 346 347 351 4 9 15 22 28 33 36 38 39 39 40 42 45 46 44 38
182 185 190 196 203 215 236 243 251 274 297 310 319 326 327 323 325 333 336 336 338 338 343 350 347 349 353 4 10 14 19 26 30 31 32 33 35 36 38 42 42 40 36 34
179 185 192 190 176 184 223 246 254 267 286 300 308 317 322 325 327 328 319 324 337 340 348 349 351 356 2 9 11 15 19 21 25 28 30 33 36 38 37 38 39 36 36 39
180 182 179 176 188 208 219 223 240 271 300 312 317 324 328 321 317 322 330 338 345 350 354 354 357 3 11 11 13 15 16 18 19 22 27 33 35 38 37 35 34 34 34 36
180 186 190 195 198 197 189 185 202 230 257 298 311 322 331 333 332 334 341 347 354 357 2 2 4 7 11 11 12 14 15 14 19 25 26 31 35 39 39 38 39 38 37 37
179 182 181 193 202 190 181 184 194 210 217 239 285 315 331 340 347 352 357 359 1 4 6 6 8 11 13 13 13 13 15 16 17 20 24 27 29 31 32 36 37 38 40 44